Thunder radar more information blitzortung!


Löydät sääaseman tiedot myös:

European Weather Network

Finland Weather Exchange

Weather Underground

AWEKAS



Weather Underground säähistoriasivu

Päivittäin yhteenveto Elokuu 31, 2017 Yksiköt:  Englantilaiset    Metriset   Molemmat
« Edellinen Päivä
Seuraava Päivä »
Päivittäin Viikoittain Kuukausittain Vuosittain Mukautettu
  Korkea: Matala: Keskiarvo:
Lämpötila: TemperatureC °F 9.9 °F 12.4 °F
Kastepiste: DewpointC °F 9.5 °F 11.8 °F
Kosteus: Humidity % 88 % 95 %
Tuulen nopeus: WindSpeedKMH mph 0.0 mph 0.2 mph
Tuulenpuuska: WindSpeedGustKMH mph - -
Tuuli:- - South
Ilmanpaine: PressurehPa in 1001.9 in -
Sade: 0.5 in    
Historical Graphs
 
 
Taulukkotiedot Elokuu 31, 2017
Aika Lämpötila Kastepiste Ilmanpaine Tuuli Tuulen nopeus Tuulenpuuska Kosteus Sademäärä (tunneittain)
TemperatureC °F DewpointC °F PressurehPa in Calm     Humidity % HourlyPrecipMM in
00:00 11.3 °F 10.6 °F 1007.3 in Calm     95 % 0.0 in
00:05 11.2 °F 10.4 °F 1007.3 in Calm     95 % 0.0 in
00:10 11.1 °F 10.3 °F 1007.3 in Calm     95 % 0.0 in
00:15 10.9 °F 10.2 °F 1007.7 in Calm     95 % 0.0 in
00:20 10.9 °F 10.3 °F 1007.7 in Calm     96 % 0.0 in
00:25 10.8 °F 10.2 °F 1007.7 in Calm     96 % 0.0 in
00:30 10.8 °F 10.2 °F 1007.7 in Calm     96 % 0.0 in
00:35 10.8 °F 10.2 °F 1007.7 in SSW 1.6 mph 6.4 mph 96 % 0.0 in
00:40 11.0 °F 10.6 °F 1007.7 in Calm   6.4 mph 97 % 0.0 in
00:45 11.1 °F 10.7 °F 1007.7 in Calm   3.2 mph 97 % 0.0 in
00:50 11.2 °F 10.7 °F 1007.7 in Calm   4.8 mph 97 % 0.0 in
00:55 11.2 °F 10.8 °F 1007.7 in SSW 1.6 mph 6.4 mph 97 % 0.0 in
01:00 11.3 °F 10.8 °F 1008.0 in Calm   6.4 mph 97 % 0.0 in
01:05 11.3 °F 10.9 °F 1008.0 in SSW 1.6 mph 8.0 mph 97 % 0.0 in
01:10 11.3 °F 10.9 °F 1008.0 in SSW 1.6 mph 8.0 mph 97 % 0.0 in
01:15 11.3 °F 10.9 °F 1008.0 in SSW 1.6 mph 8.0 mph 97 % 0.0 in
01:20 11.3 °F 10.9 °F 1008.0 in Calm   8.0 mph 97 % 0.0 in
01:25 11.3 °F 10.9 °F 1008.0 in Calm   6.4 mph 97 % 0.0 in
01:30 11.3 °F 10.9 °F 1008.0 in Calm   6.4 mph 97 % 0.0 in
01:35 11.4 °F 10.9 °F 1008.0 in Calm   6.4 mph 97 % 0.0 in
01:40 11.4 °F 11.0 °F 1007.7 in SSW 1.6 mph 6.4 mph 97 % 0.0 in
01:45 11.6 °F 11.1 °F 1007.7 in South 1.6 mph 9.7 mph 97 % 0.0 in
01:50 11.6 °F 11.2 °F 1007.7 in Calm   9.7 mph 97 % 0.0 in
01:55 11.7 °F 11.2 °F 1008.0 in Calm   6.4 mph 97 % 0.0 in
02:00 11.7 °F 11.2 °F 1008.0 in Calm     97 % 0.0 in
02:05 11.7 °F 11.2 °F 1008.0 in Calm   1.6 mph 97 % 0.0 in
02:10 11.7 °F 11.3 °F 1008.0 in SSW 1.6 mph 4.8 mph 97 % 0.0 in
02:15 11.7 °F 11.3 °F 1008.0 in Calm   4.8 mph 97 % 0.0 in
02:20 11.8 °F 11.3 °F 1008.0 in SSW 1.6 mph 8.0 mph 97 % 0.0 in
02:25 11.8 °F 11.4 °F 1008.0 in Calm   8.0 mph 97 % 0.0 in
02:30 11.8 °F 11.6 °F 1008.0 in Calm     98 % 0.0 in
02:35 11.9 °F 11.6 °F 1008.0 in Calm   4.8 mph 98 % 0.0 in
02:40 11.9 °F 11.6 °F 1008.0 in Calm   4.8 mph 98 % 0.0 in
02:45 12.0 °F 11.7 °F 1008.0 in Calm   6.4 mph 98 % 0.0 in
02:50 12.1 °F 11.7 °F 1007.7 in Calm   6.4 mph 98 % 0.0 in
02:55 12.1 °F 11.8 °F 1008.0 in Calm   6.4 mph 98 % 0.0 in
03:00 12.2 °F 11.8 °F 1008.0 in SW 1.6 mph 6.4 mph 98 % 0.0 in
03:05 12.2 °F 11.9 °F 1008.0 in SW 1.6 mph 8.0 mph 98 % 0.0 in
03:10 12.2 °F 11.9 °F 1008.0 in SSW 1.6 mph 11.3 mph 98 % 0.0 in
03:15 12.2 °F 11.9 °F 1008.0 in SSW 1.6 mph 11.3 mph 98 % 0.0 in
03:20 12.2 °F 11.9 °F 1008.4 in South 1.6 mph 6.4 mph 98 % 0.0 in
03:25 12.3 °F 11.9 °F 1008.4 in South 1.6 mph 9.7 mph 98 % 0.0 in
03:30 12.3 °F 11.9 °F 1008.0 in Calm   9.7 mph 98 % 0.0 in
03:35 12.3 °F 11.9 °F 1008.0 in South 1.6 mph 4.8 mph 98 % 0.0 in
03:40 12.3 °F 11.9 °F 1008.0 in Calm   4.8 mph 98 % 0.0 in
03:45 12.3 °F 11.9 °F 1008.0 in Calm   6.4 mph 98 % 0.0 in
03:50 12.3 °F 11.9 °F 1008.0 in Calm   6.4 mph 98 % 0.0 in
03:55 12.3 °F 11.9 °F 1008.0 in Calm   1.6 mph 98 % 0.0 in
04:00 12.3 °F 11.9 °F 1008.4 in Calm   4.8 mph 98 % 0.0 in
04:05 12.3 °F 11.9 °F 1008.0 in Calm   4.8 mph 98 % 0.0 in
04:10 12.2 °F 11.9 °F 1008.0 in Calm   4.8 mph 98 % 0.0 in
04:15 12.2 °F 11.9 °F 1008.0 in Calm   6.4 mph 98 % 0.0 in
04:20 12.2 °F 11.9 °F 1008.0 in Calm   6.4 mph 98 % 0.0 in
04:25 12.2 °F 11.9 °F 1008.0 in Calm   4.8 mph 98 % 0.0 in
04:30 12.2 °F 12.2 °F 1008.4 in Calm   4.8 mph 100 % 0.0 in
04:35 12.2 °F 11.8 °F 1008.4 in South 1.6 mph 6.4 mph 98 % 0.0 in
04:40 12.2 °F 11.8 °F 1008.0 in Calm   6.4 mph 98 % 0.0 in
04:45 12.1 °F 11.8 °F 1008.0 in Calm   6.4 mph 98 % 0.0 in
04:50 12.1 °F 11.7 °F 1008.0 in Calm   3.2 mph 98 % 0.0 in
04:55 12.0 °F 11.7 °F 1008.0 in Calm   3.2 mph 98 % 0.0 in
05:00 12.0 °F 11.7 °F 1008.0 in Calm     98 % 0.0 in
05:05 11.9 °F 11.6 °F 1008.0 in Calm     98 % 0.0 in
05:10 11.9 °F 11.6 °F 1008.0 in Calm     98 % 0.0 in
05:15 11.8 °F 11.4 °F 1008.0 in Calm     97 % 0.0 in
05:20 11.7 °F 11.3 °F 1008.0 in Calm     97 % 0.0 in
05:25 11.6 °F 11.2 °F 1008.0 in Calm     97 % 0.0 in
05:30 11.5 °F 11.1 °F 1008.0 in Calm     97 % 0.0 in
05:35 11.4 °F 10.9 °F 1008.0 in Calm     97 % 0.0 in
05:40 11.3 °F 10.8 °F 1008.0 in Calm     97 % 0.0 in
05:45 11.2 °F 10.7 °F 1008.0 in Calm     97 % 0.0 in
05:50 11.1 °F 10.6 °F 1008.0 in Calm     97 % 0.0 in
05:55 11.0 °F 10.6 °F 1008.0 in Calm     97 % 0.0 in
06:00 10.9 °F 10.4 °F 1008.0 in Calm     97 % 0.0 in
06:05 10.8 °F 10.3 °F 1008.4 in Calm     97 % 0.0 in
06:10 10.7 °F 10.2 °F 1008.4 in Calm     97 % 0.0 in
06:15 10.6 °F 10.2 °F 1008.4 in Calm     97 % 0.0 in
06:20 10.5 °F 10.1 °F 1008.4 in Calm     97 % 0.0 in
06:25 10.4 °F 10.0 °F 1008.4 in Calm     97 % 0.0 in
06:30 10.3 °F 9.9 °F 1008.4 in Calm     97 % 0.0 in
06:35 10.2 °F 9.8 °F 1008.4 in Calm     97 % 0.0 in
06:40 10.1 °F 9.7 °F 1008.7 in Calm     97 % 0.0 in
06:45 10.0 °F 9.6 °F 1008.7 in Calm     97 % 0.0 in
06:50 10.0 °F 9.6 °F 1008.4 in Calm     97 % 0.0 in
06:55 9.9 °F 9.5 °F 1008.7 in Calm     97 % 0.0 in
07:00 10.0 °F 9.7 °F 1008.4 in Calm     98 % 0.0 in
07:05 10.1 °F 9.6 °F 1008.4 in Calm     97 % 0.0 in
07:10 10.0 °F 9.7 °F 1008.4 in Calm     98 % 0.0 in
07:15 10.0 °F 9.7 °F 1008.4 in Calm     98 % 0.0 in
07:20 9.9 °F 9.7 °F 1008.0 in Calm     98 % 0.0 in
07:25 9.9 °F 9.7 °F 1008.0 in Calm     98 % 0.0 in
07:30 9.9 °F 9.7 °F 1008.0 in Calm     98 % 0.0 in
07:35 9.9 °F 9.7 °F 1008.0 in Calm     98 % 0.0 in
07:40 10.0 °F 9.7 °F 1008.0 in Calm     98 % 0.0 in
07:45 10.1 °F 9.8 °F 1008.4 in Calm     98 % 0.0 in
07:55 10.2 °F 9.9 °F 1008.0 in Calm     98 % 0.0 in
08:00 10.2 °F 9.9 °F 1008.0 in Calm     98 % 0.0 in
08:05 10.3 °F 10.0 °F 1008.4 in Calm     98 % 0.0 in
08:10 10.3 °F 10.1 °F 1008.4 in Calm     98 % 0.0 in
08:15 10.4 °F 10.2 °F 1008.4 in Calm     98 % 0.0 in
08:20 10.6 °F 10.3 °F 1008.4 in Calm     98 % 0.0 in
08:25 10.6 °F 10.3 °F 1008.4 in Calm     98 % 0.0 in
08:30 10.7 °F 10.4 °F 1008.4 in Calm     98 % 0.0 in
08:35 10.7 °F 10.4 °F 1008.4 in Calm     98 % 0.0 in
08:40 10.7 °F 10.4 °F 1008.4 in Calm   3.2 mph 98 % 0.0 in
08:45 10.7 °F 10.4 °F 1008.4 in Calm   3.2 mph 98 % 0.0 in
08:50 10.7 °F 10.4 °F 1008.4 in Calm   4.8 mph 98 % 0.0 in
08:55 10.8 °F 10.5 °F 1008.4 in South 1.6 mph 6.4 mph 98 % 0.0 in
09:00 10.8 °F 10.5 °F 1008.4 in Calm   6.4 mph 98 % 0.0 in
09:05 10.8 °F 10.6 °F 1008.4 in Calm   6.4 mph 98 % 0.0 in
09:10 10.9 °F 10.6 °F 1008.4 in Calm   1.6 mph 98 % 0.0 in
09:15 10.9 °F 10.7 °F 1008.7 in Calm   1.6 mph 98 % 0.0 in
09:20 11.1 °F 10.8 °F 1008.7 in Calm   1.6 mph 98 % 0.0 in
09:25 11.1 °F 10.8 °F 1008.4 in Calm     98 % 0.0 in
09:30 11.2 °F 10.9 °F 1008.4 in Calm   4.8 mph 98 % 0.0 in
09:35 11.2 °F 10.9 °F 1008.4 in Calm   4.8 mph 98 % 0.0 in
09:40 11.3 °F 11.1 °F 1008.7 in Calm   1.6 mph 98 % 0.0 in
09:45 11.4 °F 11.1 °F 1008.4 in Calm   3.2 mph 98 % 0.0 in
09:50 11.4 °F 11.1 °F 1008.7 in Calm   3.2 mph 98 % 0.0 in
09:55 11.4 °F 11.2 °F 1008.7 in Calm   1.6 mph 98 % 0.0 in
10:00 11.5 °F 11.2 °F 1008.7 in Calm     98 % 0.0 in
10:05 11.6 °F 11.3 °F 1008.7 in Calm     98 % 0.0 in
10:10 11.7 °F 11.4 °F 1009.0 in Calm     98 % 0.0 in
10:15 11.8 °F 11.5 °F 1008.7 in Calm     98 % 0.0 in
10:20 11.9 °F 11.6 °F 1009.0 in Calm     98 % 0.0 in
10:25 12.0 °F 11.7 °F 1009.0 in Calm     98 % 0.0 in
10:30 12.1 °F 11.8 °F 1009.0 in Calm     98 % 0.0 in
10:35 12.2 °F 11.9 °F 1009.0 in Calm     98 % 0.0 in
10:40 12.3 °F 12.0 °F 1009.0 in Calm     98 % 0.0 in
10:45 12.4 °F 12.1 °F 1008.7 in Calm     98 % 0.0 in
10:50 12.4 °F 12.1 °F 1009.0 in Calm     98 % 0.0 in
10:55 12.5 °F 12.2 °F 1009.0 in Calm     98 % 0.0 in
11:00 12.6 °F 12.2 °F 1009.0 in Calm     98 % 0.0 in
11:05 12.6 °F 12.3 °F 1008.7 in Calm     98 % 0.0 in
11:10 12.7 °F 12.4 °F 1008.7 in Calm     98 % 0.0 in
11:15 12.8 °F 12.4 °F 1008.7 in Calm     98 % 0.0 in
11:20 12.8 °F 12.5 °F 1008.7 in Calm     98 % 0.0 in
11:25 12.9 °F 12.6 °F 1009.0 in Calm     98 % 0.0 in
11:30 12.9 °F 12.5 °F 1009.0 in Calm     97 % 0.0 in
11:35 12.9 °F 12.5 °F 1009.0 in Calm     97 % 0.0 in
11:40 13.1 °F 12.6 °F 1009.0 in Calm     97 % 0.0 in
11:45 13.1 °F 12.6 °F 1008.7 in Calm   3.2 mph 97 % 0.0 in
11:50 13.2 °F 12.7 °F 1009.0 in Calm   3.2 mph 97 % 0.0 in
11:55 13.2 °F 12.8 °F 1008.7 in Calm     97 % 0.0 in
12:00 13.3 °F 12.9 °F 1008.7 in Calm     97 % 0.0 in
12:05 13.4 °F 12.9 °F 1008.7 in Calm     97 % 0.0 in
12:10 13.4 °F 13.0 °F 1008.7 in Calm     97 % 0.0 in
12:15 13.5 °F 13.1 °F 1008.7 in Calm     97 % 0.0 in
12:20 13.6 °F 13.0 °F 1008.7 in Calm     96 % 0.0 in
12:25 13.7 °F 13.1 °F 1008.4 in Calm     96 % 0.0 in
12:30 13.7 °F 13.1 °F 1008.4 in Calm     96 % 0.0 in
12:35 13.8 °F 13.2 °F 1008.4 in Calm     96 % 0.0 in
12:40 13.8 °F 13.2 °F 1008.4 in Calm     96 % 0.0 in
12:45 13.9 °F 13.2 °F 1008.4 in Calm   4.8 mph 95 % 0.0 in
12:50 13.9 °F 13.2 °F 1008.4 in Calm   4.8 mph 95 % 0.0 in
12:55 13.9 °F 13.0 °F 1008.4 in Calm   6.4 mph 94 % 0.0 in
13:00 14.1 °F 13.1 °F 1008.7 in Calm   6.4 mph 94 % 0.0 in
13:05 14.1 °F 13.2 °F 1008.4 in Calm   4.8 mph 94 % 0.0 in
13:10 14.2 °F 13.2 °F 1008.4 in Calm   4.8 mph 94 % 0.0 in
13:15 14.2 °F 13.3 °F 1008.4 in Calm   1.6 mph 94 % 0.0 in
13:20 14.3 °F 13.3 °F 1008.4 in South 1.6 mph 6.4 mph 94 % 0.0 in
13:25 14.3 °F 13.2 °F 1008.4 in Calm   6.4 mph 93 % 0.0 in
13:30 14.3 °F 13.2 °F 1008.4 in Calm   3.2 mph 93 % 0.0 in
13:35 14.4 °F 13.3 °F 1008.4 in Calm   3.2 mph 93 % 0.0 in
13:40 14.4 °F 13.3 °F 1008.4 in Calm   1.6 mph 93 % 0.0 in
13:45 14.6 °F 13.6 °F 1008.4 in Calm   1.6 mph 94 % 0.0 in
13:50 14.6 °F 13.5 °F 1008.4 in Calm   1.6 mph 93 % 0.0 in
13:55 14.7 °F 13.6 °F 1008.4 in Calm   4.8 mph 93 % 0.0 in
14:00 14.7 °F 13.6 °F 1008.4 in Calm   4.8 mph 93 % 0.0 in
14:05 14.7 °F 13.6 °F 1008.7 in South 1.6 mph 4.8 mph 93 % 0.0 in
14:10 14.7 °F 13.4 °F 1008.7 in Calm   4.8 mph 92 % 0.0 in
14:15 14.7 °F 13.6 °F 1008.7 in Calm   4.8 mph 93 % 0.0 in
14:20 14.8 °F 13.5 °F 1008.7 in South 1.6 mph 8.0 mph 92 % 0.0 in
14:25 14.8 °F 13.5 °F 1008.7 in Calm   8.0 mph 92 % 0.0 in
14:30 14.8 °F 13.5 °F 1008.4 in Calm   4.8 mph 92 % 0.0 in
14:35 14.8 °F 13.6 °F 1008.4 in South 1.6 mph 9.7 mph 92 % 0.0 in
14:40 14.9 °F 13.6 °F 1008.4 in Calm   9.7 mph 92 % 0.0 in
14:45 15.0 °F 13.6 °F 1008.4 in South 1.6 mph 6.4 mph 91 % 0.0 in
14:55 15.2 °F 13.7 °F 1008.4 in Calm   4.8 mph 91 % 0.0 in
15:00 15.2 °F 13.6 °F 1008.0 in Calm   4.8 mph 90 % 0.0 in
15:05 15.2 °F 13.6 °F 1008.0 in Calm   4.8 mph 90 % 0.0 in
15:10 15.2 °F 13.6 °F 1008.0 in Calm   4.8 mph 90 % 0.0 in
15:15 15.2 °F 13.8 °F 1008.0 in Calm   4.8 mph 91 % 0.0 in
15:20 15.2 °F 13.8 °F 1008.0 in Calm   6.4 mph 91 % 0.0 in
15:25 15.3 °F 13.8 °F 1008.0 in Calm   6.4 mph 91 % 0.0 in
15:30 15.3 °F 13.8 °F 1008.0 in Calm   3.2 mph 91 % 0.0 in
15:35 15.3 °F 13.8 °F 1008.0 in Calm   6.4 mph 91 % 0.0 in
15:40 15.3 °F 13.7 °F 1008.0 in Calm   6.4 mph 90 % 0.0 in
15:45 15.3 °F 13.8 °F 1008.0 in Calm   4.8 mph 91 % 0.0 in
15:50 15.3 °F 13.8 °F 1007.7 in Calm   4.8 mph 91 % 0.0 in
15:55 15.3 °F 14.1 °F 1008.0 in Calm     92 % 0.0 in
16:00 15.3 °F 14.1 °F 1007.7 in Calm   4.8 mph 92 % 0.0 in
16:05 15.3 °F 13.9 °F 1007.7 in Calm   4.8 mph 91 % 0.0 in
16:10 15.3 °F 14.1 °F 1007.3 in Calm   4.8 mph 92 % 0.0 in
16:15 15.4 °F 14.1 °F 1007.7 in Calm   1.6 mph 92 % 0.0 in
16:20 15.4 °F 14.1 °F 1007.3 in Calm   3.2 mph 92 % 0.0 in
16:25 15.3 °F 13.8 °F 1007.3 in East 1.6 mph 8.0 mph 91 % 0.0 in
16:30 15.1 °F 13.1 °F 1007.3 in SSE 3.2 mph 14.5 mph 88 % 0.0 in
16:35 14.9 °F 13.3 °F 1007.3 in SSE 1.6 mph 14.5 mph 90 % 0.0 in
16:40 14.9 °F 13.3 °F 1007.3 in Calm   9.7 mph 90 % 0.0 in
16:45 14.9 °F 13.4 °F 1007.3 in Calm   3.2 mph 91 % 0.0 in
16:50 14.9 °F 13.4 °F 1007.3 in Calm   3.2 mph 91 % 0.0 in
16:55 14.8 °F 13.4 °F 1007.3 in Calm   6.4 mph 91 % 0.0 in
17:00 14.8 °F 13.2 °F 1007.3 in SSE 1.6 mph 9.7 mph 90 % 0.0 in
17:05 14.7 °F 12.9 °F 1007.3 in ESE 1.6 mph 9.7 mph 89 % 0.0 in
17:10 14.6 °F 12.8 °F 1007.3 in ENE 1.6 mph 9.7 mph 89 % 0.0 in
17:15 14.5 °F 12.7 °F 1007.0 in ESE 1.6 mph 9.7 mph 89 % 0.0 in
17:20 14.4 °F 12.7 °F 1007.3 in SSE 1.6 mph 9.7 mph 89 % 0.0 in
17:25 14.4 °F 12.8 °F 1007.3 in Calm   8.0 mph 90 % 0.0 in
17:30 14.3 °F 12.7 °F 1007.0 in Calm   3.2 mph 90 % 0.0 in
17:35 14.3 °F 12.7 °F 1007.0 in Calm   3.2 mph 90 % 0.0 in
17:40 14.2 °F 12.8 °F 1007.0 in Calm   8.0 mph 91 % 0.0 in
17:45 14.2 °F 12.6 °F 1006.7 in Calm   8.0 mph 90 % 0.0 in
17:50 14.1 °F 12.5 °F 1007.0 in Calm   6.4 mph 90 % 0.0 in
17:55 14.0 °F 12.4 °F 1007.0 in Calm   6.4 mph 90 % 0.0 in
18:00 13.9 °F 12.3 °F 1007.0 in Calm   1.6 mph 90 % 0.0 in
18:05 13.9 °F 12.3 °F 1007.0 in Calm   1.6 mph 90 % 0.0 in
18:10 13.8 °F 12.4 °F 1007.0 in Calm     91 % 0.0 in
18:15 13.8 °F 12.4 °F 1007.0 in Calm     91 % 0.0 in
18:20 13.8 °F 12.5 °F 1006.7 in Calm     92 % 0.0 in
18:25 13.7 °F 12.2 °F 1006.7 in Calm   3.2 mph 91 % 0.3 in
18:30 13.6 °F 12.2 °F 1006.7 in Calm   3.2 mph 91 % 0.3 in
18:35 13.6 °F 12.4 °F 1006.7 in Calm     93 % 0.3 in
18:40 13.5 °F 12.4 °F 1006.7 in Calm   6.4 mph 93 % 0.3 in
18:45 13.5 °F 12.4 °F 1006.7 in Calm   6.4 mph 93 % 0.3 in
18:50 13.4 °F 12.3 °F 1006.7 in Calm   6.4 mph 93 % 0.3 in
18:55 13.3 °F 12.2 °F 1006.7 in Calm   1.6 mph 93 % 0.3 in
19:00 13.3 °F 12.2 °F 1006.7 in Calm   1.6 mph 93 % 0.3 in
19:05 13.2 °F 12.1 °F 1006.7 in Calm   1.6 mph 93 % 0.3 in
19:10 13.2 °F 12.1 °F 1006.7 in Calm     93 % 0.3 in
19:15 13.1 °F 12.0 °F 1006.7 in Calm     93 % 0.5 in
19:20 13.1 °F 12.1 °F 1006.3 in Calm     94 % 0.5 in
19:25 13.0 °F 12.1 °F 1006.3 in Calm     94 % 0.3 in
19:30 12.9 °F 12.0 °F 1006.3 in Calm     94 % 0.3 in
19:35 12.8 °F 12.1 °F 1006.3 in Calm   6.4 mph 95 % 0.3 in
19:40 12.8 °F 12.0 °F 1006.3 in Calm   6.4 mph 95 % 0.3 in
19:45 12.7 °F 11.9 °F 1006.0 in Calm   3.2 mph 95 % 0.3 in
19:50 12.6 °F 11.8 °F 1006.0 in Calm   3.2 mph 95 % 0.3 in
19:55 12.6 °F 11.8 °F 1006.0 in Calm     95 % 0.3 in
20:00 12.5 °F 11.7 °F 1006.0 in Calm   3.2 mph 95 % 0.3 in
20:05 12.4 °F 11.7 °F 1005.6 in Calm   3.2 mph 95 % 0.3 in
20:10 12.4 °F 11.6 °F 1005.6 in Calm   6.4 mph 95 % 0.3 in
20:15 12.3 °F 11.7 °F 1005.6 in Calm   6.4 mph 96 % 0.0 in
20:20 12.2 °F 11.6 °F 1005.6 in Calm   6.4 mph 96 % 0.0 in
20:25 12.2 °F 11.6 °F 1005.6 in Calm     96 % 0.0 in
20:30 12.1 °F 11.5 °F 1005.3 in Calm     96 % 0.0 in
20:35 12.1 °F 11.4 °F 1005.6 in Calm     96 % 0.0 in
20:40 12.0 °F 11.4 °F 1005.3 in Calm     96 % 0.0 in
20:45 12.0 °F 11.4 °F 1005.3 in Calm     96 % 0.0 in
20:50 11.9 °F 11.3 °F 1005.3 in Calm     96 % 0.0 in
20:55 11.9 °F 11.3 °F 1005.0 in Calm     96 % 0.0 in
21:00 11.9 °F 11.3 °F 1005.0 in Calm     96 % 0.0 in
21:05 11.9 °F 11.3 °F 1004.6 in Calm     96 % 0.0 in
21:10 11.9 °F 11.3 °F 1004.6 in Calm     96 % 0.0 in
21:15 11.9 °F 11.4 °F 1004.6 in Calm     97 % 0.0 in
21:20 11.9 °F 11.4 °F 1004.6 in Calm     97 % 0.0 in
21:25 11.9 °F 11.4 °F 1004.6 in Calm     97 % 0.0 in
21:30 11.9 °F 11.4 °F 1004.6 in Calm     97 % 0.0 in
21:35 11.9 °F 11.4 °F 1004.6 in Calm     97 % 0.0 in
21:40 11.9 °F 11.4 °F 1004.3 in Calm     97 % 0.0 in
21:45 11.9 °F 11.4 °F 1004.3 in Calm     97 % 0.0 in
21:50 11.9 °F 11.4 °F 1004.3 in Calm     97 % 0.0 in
21:55 11.9 °F 11.4 °F 1004.3 in Calm   1.6 mph 97 % 0.0 in
22:00 11.9 °F 11.5 °F 1004.3 in Calm   1.6 mph 97 % 0.0 in
22:05 11.9 °F 11.5 °F 1004.3 in Calm     97 % 0.0 in
22:10 11.9 °F 11.5 °F 1003.9 in Calm     97 % 0.0 in
22:15 12.0 °F 11.6 °F 1003.9 in Calm     97 % 0.0 in
22:20 12.0 °F 11.6 °F 1003.9 in Calm     97 % 0.0 in
22:25 12.1 °F 11.6 °F 1003.9 in Calm     97 % 0.0 in
22:30 12.1 °F 11.6 °F 1003.6 in Calm     97 % 0.0 in
22:35 12.1 °F 11.6 °F 1003.6 in Calm     97 % 0.0 in
22:40 12.1 °F 11.6 °F 1003.6 in Calm     97 % 0.0 in
22:45 12.1 °F 11.6 °F 1003.3 in Calm     97 % 0.0 in
22:50 12.1 °F 11.6 °F 1003.3 in Calm     97 % 0.0 in
22:55 12.1 °F 11.6 °F 1003.3 in Calm   6.4 mph 97 % 0.0 in
23:00 12.1 °F 11.6 °F 1002.9 in Calm   6.4 mph 97 % 0.0 in
23:05 12.1 °F 11.6 °F 1002.6 in Calm     97 % 0.0 in
23:10 12.1 °F 11.6 °F 1002.6 in Calm     97 % 0.0 in
23:15 12.1 °F 11.6 °F 1002.6 in Calm     97 % 0.0 in
23:20 12.1 °F 11.6 °F 1002.6 in Calm     97 % 0.0 in
23:25 12.1 °F 11.6 °F 1002.6 in Calm     97 % 0.0 in
23:30 12.1 °F 11.6 °F 1002.3 in Calm     97 % 0.0 in
23:35 12.1 °F 11.6 °F 1002.3 in Calm     97 % 0.0 in
23:40 12.1 °F 11.6 °F 1002.3 in Calm     97 % 0.0 in
23:45 12.1 °F 11.6 °F 1001.9 in Calm     97 % 0.0 in
23:50 12.1 °F 11.6 °F 1001.9 in Calm   1.6 mph 97 % 0.0 in
23:55 12.1 °F 11.6 °F 1001.9 in Calm   1.6 mph 97 % 0.0 in
Esan sääasema
Terveisin Weather Underground - 3.75 mb

Alkuperäinen skripti  Jim McMurry - jmcmurry@mwt.net Sovitettu myös templatelle  Wim van der Kuil - Leuven-Template.eu

Laitteet joita käytämme:

Sääasema
Davis VP2

Sääasemaohjelma
Cumulus

Sääaseman tietokone
Asus EeePC

Palveluntarjoaja
Suncomet

Davis VP2

Cumulus

Asus EeePC

Suncomet